Location: Lac Echo
(45.9375°N, 75.4580°W)
Time: 01:35:53
(UTC-04:00)

Amateur Radio Satellites - All Passes

Search period start: 26 September 2017 01:05
Search period end: 27 September 2017 01:05
Location: Lac Echo, 45.9375°N, 75.4580°W

Satellite Date Start Highest point End Downlink Frequencies (MHz)
Time Altitude Azimuth
Oscar 19 26 Sep 01:08:03 01:08:59 10° 86° (E) 01:09:54 437.125/150
QB50P2 26 Sep 01:12:47 01:17:05 77° 286° (WNW) 01:21:22 145.880/145.840
SPROUT 26 Sep 01:16:38 01:20:27 32° 263° (W) 01:24:19 437.525
nSIGHT-1 26 Sep 01:18:41 01:21:52 54° 21° (NNE) 01:25:05 .
50 SAT 26 Sep 01:18:59 01:22:16 68° 75° (ENE) 01:25:34 437.505
AIST 2D 26 Sep 01:33:33 01:35:41 15° 295° (WNW) 01:37:48 435.315
VELOX 1 26 Sep 01:36:57 01:40:45 28° 264° (W) 01:44:34 145.980
YUBILEINY 26 Sep 01:40:27 01:46:41 23° 282° (WNW) 01:52:57 435.215
NANOSAT C BR1 26 Sep 01:45:48 01:49:51 42° 290° (WNW) 01:53:52 145.865
O/OREOS (USA 219) 26 Sep 01:52:25 01:56:25 32° 105° (ESE) 02:00:29 437.305
ITUPSAT 1 26 Sep 02:04:38 02:07:44 17° 59° (ENE) 02:10:50 437.325
M-CUBED/EXP-1 PRIME 26 Sep 02:09:55 02:13:14 78° 109° (ESE) 02:16:28 437.505
DUCHIFAT 1 26 Sep 02:13:09 02:16:43 26° 294° (WNW) 02:20:16 145.980
ISS 26 Sep 02:20:32 02:23:48 60° 213° (SSW) 02:27:02 437.550
UKube-1 26 Sep 02:24:34 02:28:42 46° 260° (W) 02:32:52 .
POLYITAN 1 26 Sep 02:31:44 02:34:15 15° 299° (WNW) 02:36:45 437.675
EO-79 26 Sep 02:35:28 02:37:44 14° 299° (WNW) 02:40:00 145.935-145.965
BUGSAT 1 26 Sep 02:37:40 02:41:44 48° 289° (WNW) 02:45:49 437.445
DX 1 26 Sep 02:37:50 02:41:19 23° 266° (W) 02:44:49 434.975-435.025
BEESAT 26 Sep 02:38:05 02:42:20 34° 66° (ENE) 02:46:38 436.000
Oscar 19 26 Sep 02:43:56 02:49:08 80° 104° (ESE) 02:54:16 437.125/150
AO-7 26 Sep 02:45:45 02:48:47 12° 84° (E) 02:51:48 .
MOZHAYETS 4 26 Sep 02:46:36 02:50:51 37° 68° (ENE) 02:55:08
Gurwin Techsat 1B 26 Sep 02:49:29 02:54:47 62° 102° (ESE) 03:00:02 435.225
nSIGHT-1 26 Sep 02:55:13 02:58:04 28° 220° (SW) 03:00:55 .
RS-15 26 Sep 02:57:24 02:59:56 11° 90° (E) 03:02:28 29.354- 29.394
BEESAT 3 26 Sep 03:14:04 03:17:45 34° 45° (NE) 03:21:22 437.485
CUBESAT XI-V 26 Sep 03:20:53 03:24:19 21° 63° (ENE) 03:27:45 437.345
BEESAT 2 26 Sep 03:27:51 03:30:54 20° 38° (NE) 03:33:55 435.950
O/OREOS (USA 219) 26 Sep 03:31:49 03:35:49 30° 304° (NW) 03:39:53 437.305
AO-85 26 Sep 03:34:38 03:38:15 25° 41° (NE) 03:42:06 145.980
ITUPSAT 1 26 Sep 03:40:18 03:45:02 67° 258° (WSW) 03:49:50 437.325
ITAMSAT 1 26 Sep 03:54:55 03:59:16 26° 94° (E) 04:03:37 435.822/435.867
BEESAT 26 Sep 04:15:55 04:20:07 30° 264° (W) 04:24:20 436.000
MOZHAYETS 4 26 Sep 04:24:14 04:28:05 26° 266° (W) 04:31:58
KKS-1 26 Sep 04:24:29 04:28:19 30° 67° (ENE) 04:32:11 437.445
Oscar 19 26 Sep 04:24:39 04:27:48 16° 302° (WNW) 04:30:55 437.125/150
Gurwin Techsat 1B 26 Sep 04:30:20 04:34:16 21° 300° (WNW) 04:38:11 435.225
AO-7 26 Sep 04:34:57 04:43:13 64° 104° (ESE) 04:51:25 .
STARS 26 Sep 04:41:56 04:45:06 20° 63° (ENE) 04:48:18 437.465
BEESAT 3 26 Sep 04:51:48 04:55:13 28° 244° (WSW) 04:58:34 437.485
CUBESAT XI-V 26 Sep 04:56:45 05:01:20 52° 261° (W) 05:05:56 437.345
RS-15 26 Sep 04:57:37 05:09:17 53° 112° (ESE) 05:20:58 29.354- 29.394
BEESAT 2 26 Sep 05:05:00 05:09:01 62° 238° (WSW) 05:12:58 435.950
AO-85 26 Sep 05:14:34 05:18:54 53° 239° (WSW) 05:23:33 145.980
ITAMSAT 1 26 Sep 05:33:57 05:38:55 45° 292° (WNW) 05:43:51 435.822/435.867
STRAND 1 26 Sep 05:57:03 05:59:35 14° 56° (NE) 06:02:07 437.568
KKS-1 26 Sep 06:00:58 06:04:50 29° 264° (W) 06:08:45 437.445
CUTE-I 26 Sep 06:03:39 06:06:17 14° 88° (E) 06:08:55 437.470
LilacSat-2 26 Sep 06:06:49 06:08:54 14° 90° (E) 06:10:57 437.200
KAITUO 1B 26 Sep 06:15:07 06:16:29 12° 89° (E) 06:17:51 145.475/437.950
DOVE 4 26 Sep 06:15:59 06:20:14 63° 101° (ESE) 06:24:39 437.250
STARS 26 Sep 06:16:57 06:21:08 46° 261° (W) 06:25:21 437.465
AO-7 26 Sep 06:28:18 06:35:33 35° 305° (NW) 06:42:47 .
XW-2D 26 Sep 06:50:01 06:53:40 41° 98° (E) 06:57:14 145.860 - 145.880
HO-68 26 Sep 06:51:32 06:56:04 17° 88° (E) 07:00:35 435.675
XW-2F 26 Sep 07:00:07 07:03:49 49° 100° (E) 07:07:28 145.980 - 146.000
XW-2B 26 Sep 07:02:23 07:06:09 55° 100° (E) 07:09:52 145.730 - 145.750
RS-15 26 Sep 07:09:38 07:21:48 60° 317° (NW) 07:33:55 29.354- 29.394
NUDT-PHONESAT 26 Sep 07:14:00 07:17:42 55° 100° (E) 07:21:19 437.300
XW-2C 26 Sep 07:23:54 07:27:44 79° 282° (WNW) 07:31:30 145.795 - 145.815
CUTE 1.7 + AOD 2 26 Sep 07:25:40 07:28:59 22° 93° (E) 07:32:16 437.475
FO-29 26 Sep 07:29:07 07:31:20 13° 55° (NE) 07:33:31 435.910
STRAND 1 26 Sep 07:32:54 07:38:00 87° 72° (ENE) 07:43:09 437.568
LilacSat-2 26 Sep 07:39:45 07:43:28 48° 287° (WNW) 07:47:07 437.200
CUTE-I 26 Sep 07:41:39 07:47:01 86° 289° (WNW) 07:52:22 437.470
KAITUO 1B 26 Sep 07:47:09 07:50:49 55° 287° (WNW) 07:54:27 145.475/437.950
DOVE 4 26 Sep 07:55:07 07:57:31 15° 298° (WNW) 07:59:56 437.250
XW-2A 26 Sep 08:17:27 08:20:31 30° 97° (E) 08:23:33 145.665 - 145.685
CUBEBUG 2 26 Sep 08:23:25 08:28:03 53° 99° (E) 08:32:42 437.445
UWE-3 26 Sep 08:24:32 08:28:47 33° 96° (E) 08:32:59 435.000/436.395/437.385
XW-2D 26 Sep 08:25:01 08:27:32 17° 296° (WNW) 08:30:01 145.860 - 145.880
AO-7 26 Sep 08:25:19 08:25:51 10° 329° (NNW) 08:26:23 .
SEEDS 26 Sep 08:27:04 08:31:14 62° 101° (E) 08:35:21 437.485
UNISAT 6 26 Sep 08:27:42 08:29:01 11° 57° (ENE) 08:30:19 437.425
XW-2F 26 Sep 08:35:24 08:37:32 15° 297° (WNW) 08:39:39 145.980 - 146.000
HO-68 26 Sep 08:37:31 08:44:46 87° 107° (ESE) 08:51:59 435.675
XW-2B 26 Sep 08:37:59 08:39:53 13° 298° (WNW) 08:41:47 145.730 - 145.750
AAUSAT CUBESAT 2 26 Sep 08:41:09 08:45:01 39° 98° (E) 08:48:51 437.432
TIGRISAT 26 Sep 08:48:53 08:51:38 16° 61° (ENE) 08:54:26 435.000
NUDT-PHONESAT 26 Sep 08:49:20 08:51:06 13° 298° (WNW) 08:52:52 437.300
Oscar 11 26 Sep 08:57:05 09:00:36 24° 93° (E) 09:04:05 .
AO-73 26 Sep 09:00:57 09:05:14 38° 97° (E) 09:09:27 145.935
CUTE 1.7 + AOD 2 26 Sep 09:01:01 09:04:55 36° 290° (WNW) 09:08:47 437.475
ZACube-1 26 Sep 09:05:29 09:09:57 47° 98° (E) 09:14:20 437.345
FO-29 26 Sep 09:10:10 09:15:42 82° 74° (ENE) 09:20:56 435.910
STRAND 1 26 Sep 09:15:41 09:17:52 13° 273° (W) 09:20:04 437.568
CUTE-I 26 Sep 09:23:28 09:26:17 15° 304° (NW) 09:29:06 437.470
RS-15 26 Sep 09:26:47 09:37:32 33° 349° (NNW) 09:48:03 29.354- 29.394
DELFI C3 26 Sep 09:43:38 09:46:08 16° 91° (E) 09:48:37 145.870
XW-2A 26 Sep 09:50:38 09:53:02 18° 294° (WNW) 09:55:26 145.665 - 145.685
UNISAT 6 26 Sep 10:00:33 10:04:57 86° 72° (ENE) 10:09:28 437.425
CUBEBUG 2 26 Sep 10:00:50 10:04:17 21° 297° (WNW) 10:07:46 437.445
UWE-3 26 Sep 10:01:04 10:05:08 30° 293° (WNW) 10:09:12 435.000/436.395/437.385
SEEDS 26 Sep 10:04:08 10:06:26 15° 299° (WNW) 10:08:43 437.485
PRISM 26 Sep 10:04:25 10:08:23 51° 71° (ENE) 10:12:21 437.425
Max Valier Satellite 26 Sep 10:09:50 10:12:52 23° 94° (E) 10:15:51 145.860
AAUSAT CUBESAT 2 26 Sep 10:17:10 10:20:14 20° 295° (WNW) 10:23:16 437.432
O/OREOS (USA 219) 26 Sep 10:21:16 10:23:57 15° 47° (NE) 10:26:36 437.305
TIGRISAT 26 Sep 10:23:30 10:27:49 61° 259° (W) 10:32:17 435.000
HO-68 26 Sep 10:26:23 10:31:39 23° 307° (NW) 10:36:55 435.675
Oscar 11 26 Sep 10:32:50 10:36:49 36° 291° (WNW) 10:40:46 .
QB50P2 26 Sep 10:34:27 10:36:16 13° 59° (ENE) 10:38:05 145.880/145.840
AIST 2D 26 Sep 10:36:13 10:38:59 21° 67° (ENE) 10:41:44 435.315
AO-73 26 Sep 10:37:30 10:41:17 26° 294° (WNW) 10:45:01 145.935
ZACube-1 26 Sep 10:42:26 10:45:54 22° 296° (WNW) 10:49:21 437.345
YUBILEINY 26 Sep 10:53:05 10:58:47 20° 76° (ENE) 11:04:29 435.215
FO-29 26 Sep 10:58:55 11:01:28 13° 271° (W) 11:03:57 435.910
EO-88 26 Sep 11:03:19 11:06:59 74° 102° (ESE) 11:10:37 145.990 - 145.960
NANOSAT C BR1 26 Sep 11:05:15 11:08:21 20° 64° (ENE) 11:11:29 145.865
DELFI C3 26 Sep 11:17:23 11:21:07 43° 288° (WNW) 11:24:49 145.870
M-CUBED/EXP-1 PRIME 26 Sep 11:24:37 11:27:12 17° 59° (ENE) 11:29:40 437.505
DUCHIFAT 1 26 Sep 11:31:13 11:34:56 32° 68° (ENE) 11:38:41 145.980
ESTCUBE 1 26 Sep 11:32:40 11:35:38 17° 91° (E) 11:38:33 437.505/2401.250
PRISM 26 Sep 11:41:34 11:43:57 15° 269° (W) 11:46:21 437.425
UNISAT 6 26 Sep 11:41:48 11:42:19 10° 274° (W) 11:42:50 437.425
RS-15 26 Sep 11:43:19 11:54:27 38° 23° (NNE) 12:05:05 29.354- 29.394
Max Valier Satellite 26 Sep 11:43:27 11:46:41 28° 291° (WNW) 11:49:53 145.860
POLYITAN 1 26 Sep 11:49:07 11:53:16 62° 74° (ENE) 11:57:30 437.675
LO-87 26 Sep 11:49:55 11:53:14 34° 97° (E) 11:56:33 145.935 - 145.965
EO-79 26 Sep 11:52:30 11:56:40 68° 74° (ENE) 12:00:54 145.935-145.965
BUGSAT 1 26 Sep 11:55:39 11:58:16 17° 62° (ENE) 12:00:54 437.445
O/OREOS (USA 219) 26 Sep 11:59:22 12:04:00 85° 250° (WSW) 12:08:37 437.305
QB50P2 26 Sep 12:07:13 12:11:26 77° 258° (WSW) 12:15:42 145.880/145.840
AIST 2D 26 Sep 12:08:58 12:12:02 27° 265° (W) 12:15:07 435.315
Oscar 19 26 Sep 12:25:28 12:29:26 23° 61° (ENE) 12:33:24 437.125/150
NO-84 26 Sep 12:34:57 12:38:45 48° 138° (SE) 12:42:15 435.350 FM
Gurwin Techsat 1B 26 Sep 12:35:14 12:38:58 20° 59° (ENE) 12:42:42 435.225
NANOSAT C BR1 26 Sep 12:39:48 12:43:46 42° 261° (W) 12:47:49 145.865
YUBILEINY 26 Sep 12:45:35 12:54:18 88° 98° (E) 13:03:03 435.215
M-CUBED/EXP-1 PRIME 26 Sep 12:57:14 13:01:20 53° 254° (WSW) 13:05:09 437.505
SPROUT 26 Sep 12:59:15 13:03:11 33° 97° (E) 13:07:05 437.525
DUCHIFAT 1 26 Sep 13:07:08 13:10:37 25° 266° (W) 13:14:08 145.980
ESTCUBE 1 26 Sep 13:08:22 13:12:45 53° 288° (WNW) 13:17:06 437.505/2401.250
VELOX 1 26 Sep 13:23:35 13:27:46 43° 99° (E) 13:31:57 145.980
LO-87 26 Sep 13:23:54 13:26:25 18° 294° (WNW) 13:28:57 145.935 - 145.965
POLYITAN 1 26 Sep 13:27:24 13:29:28 13° 271° (W) 13:31:35 437.675
BUGSAT 1 26 Sep 13:29:20 13:33:14 49° 260° (W) 13:37:14 437.445
EO-79 26 Sep 13:31:10 13:32:54 12° 271° (W) 13:34:38 145.935-145.965
AO-7 26 Sep 13:46:06 13:52:46 28° 51° (NE) 13:59:26 .
RS-15 26 Sep 13:56:48 14:08:58 82° 53° (NE) 14:20:25 29.354- 29.394
Oscar 19 26 Sep 14:03:15 14:08:22 56° 259° (W) 14:13:30 437.125/150
SO-50 26 Sep 14:05:35 14:10:04 80° 125° (SE) 14:14:35 436.795
50 SAT 26 Sep 14:08:59 14:12:10 42° 100° (E) 14:15:20 437.505
UKube-1 26 Sep 14:09:16 14:12:43 23° 94° (E) 14:16:09 .
NO-84 26 Sep 14:12:47 14:16:15 34° 335° (NNW) 14:19:27 435.350 FM
Gurwin Techsat 1B 26 Sep 14:13:06 14:18:23 68° 258° (WSW) 14:23:42 435.225
DX 1 26 Sep 14:22:18 14:26:31 47° 100° (E) 14:30:42 434.975-435.025
PCSat 26 Sep 14:35:04 14:40:26 67° 118° (ESE) 14:45:50 145.827
SPROUT 26 Sep 14:35:23 14:38:56 26° 294° (WNW) 14:42:28 437.525
YUBILEINY 26 Sep 14:45:50 14:52:22 23° 300° (WNW) 14:58:56 435.215
VELOX 1 26 Sep 15:00:37 15:03:57 21° 296° (WNW) 15:07:17 145.980
ITAMSAT 1 26 Sep 15:15:02 15:20:01 51° 69° (ENE) 15:25:02 435.822/435.867
AO-7 26 Sep 15:36:22 15:44:43 82° 252° (WSW) 15:53:05 .
ITUPSAT 1 26 Sep 15:38:36 15:42:39 26° 95° (E) 15:46:38 437.325
50 SAT 26 Sep 15:42:47 15:44:17 13° 296° (WNW) 15:45:48 437.505
UKube-1 26 Sep 15:44:52 15:48:51 37° 291° (WNW) 15:52:47 .
SO-50 26 Sep 15:47:45 15:51:04 20° 325° (NW) 15:54:24 436.795
NO-84 26 Sep 15:51:55 15:54:22 18° 355° (N) 15:56:42 435.350 FM
DX 1 26 Sep 15:59:16 16:02:23 19° 297° (WNW) 16:05:28 434.975-435.025
RS-15 26 Sep 16:10:23 16:20:05 31° 257° (WSW) 16:29:27 29.354- 29.394
BEESAT 26 Sep 16:12:37 16:17:21 55° 101° (E) 16:22:02 436.000
MOZHAYETS 4 26 Sep 16:15:36 16:20:14 62° 101° (E) 16:24:48
PCSat 26 Sep 16:19:49 16:24:19 26° 319° (NW) 16:28:49 145.827
CUBESAT XI-V 26 Sep 16:50:50 16:54:59 32° 96° (E) 16:59:06 437.345
LilacSat-2 26 Sep 16:52:05 16:53:22 11° 61° (ENE) 16:54:40 437.200
ITAMSAT 1 26 Sep 16:55:46 16:59:46 22° 267° (W) 17:03:49 435.822/435.867
ITUPSAT 1 26 Sep 17:16:04 17:20:34 40° 292° (WNW) 17:25:03 437.325
HO-68 26 Sep 17:23:45 17:28:33 20° 51° (NE) 17:33:22 435.675
DOVE 4 26 Sep 17:23:49 17:28:09 84° 77° (ENE) 17:32:22 437.250
CUTE-I 26 Sep 17:27:03 17:31:35 30° 64° (ENE) 17:36:08 437.470
NO-84 26 Sep 17:29:53 17:32:38 24° 17° (NNE) 17:35:13 435.350 FM
AO-7 26 Sep 17:33:23 17:38:42 18° 272° (W) 17:44:02 .
XW-2D 26 Sep 17:33:24 17:36:45 29° 69° (ENE) 17:40:07 145.860 - 145.880
XW-2F 26 Sep 17:42:58 17:46:26 33° 70° (ENE) 17:49:56 145.980 - 146.000
XW-2B 26 Sep 17:45:36 17:49:10 37° 71° (ENE) 17:52:45 145.730 - 145.750
KKS-1 26 Sep 17:48:37 17:52:50 41° 99° (E) 17:57:03 437.445
BEESAT 26 Sep 17:51:14 17:54:44 20° 299° (WNW) 17:58:12 436.000
MOZHAYETS 4 26 Sep 17:53:53 17:56:54 17° 299° (WNW) 17:59:54
NUDT-PHONESAT 26 Sep 17:55:08 17:58:34 35° 70° (ENE) 18:02:01 437.300
STARS 26 Sep 18:03:49 18:07:30 25° 95° (E) 18:11:10 437.465
XW-2C 26 Sep 18:06:52 18:10:41 69° 75° (ENE) 18:14:32 145.795 - 145.815
CUTE 1.7 + AOD 2 26 Sep 18:20:35 18:23:54 22° 65° (ENE) 18:27:14 437.475
LilacSat-2 26 Sep 18:23:12 18:27:04 72° 258° (WSW) 18:30:58 437.200
CUBESAT XI-V 26 Sep 18:28:16 18:32:17 30° 293° (WNW) 18:36:17 437.345
KAITUO 1B 26 Sep 18:28:39 18:32:27 89° 259° (WSW) 18:36:17 145.475/437.950
Tancredo 1 26 Sep 18:41:46 18:44:13 33° 143° (SE) 18:46:41 437.200
BEESAT 3 26 Sep 18:43:11 18:46:26 24° 115° (ESE) 18:49:44 437.485
XW-2A 26 Sep 18:51:29 18:53:41 16° 65° (ENE) 18:55:54 145.665 - 145.685
BEESAT 2 26 Sep 19:00:33 19:02:00 12° 109° (ESE) 19:03:28 435.950
ISS 26 Sep 19:04:23 19:05:04 11° 132° (SE) 19:05:46 437.550
CUTE-I 26 Sep 19:06:28 19:11:28 42° 262° (W) 19:16:31 437.470
NO-84 26 Sep 19:07:09 19:10:17 70° 219° (SW) 19:13:11 435.350 FM
XW-2D 26 Sep 19:07:48 19:10:55 23° 266° (W) 19:14:03 145.860 - 145.880
HO-68 26 Sep 19:08:07 19:15:16 82° 71° (ENE) 19:22:28 435.675
XW-2F 26 Sep 19:17:47 19:20:38 20° 267° (W) 19:23:31 145.980 - 146.000
SEEDS 26 Sep 19:20:31 19:24:40 57° 74° (ENE) 19:28:51 437.485
XW-2B 26 Sep 19:20:49 19:23:30 18° 268° (W) 19:26:11 145.730 - 145.750
CUBEBUG 2 26 Sep 19:23:38 19:27:50 55° 72° (ENE) 19:32:12 437.445
UWE-3 26 Sep 19:23:41 19:27:37 34° 68° (ENE) 19:31:40 435.000/436.395/437.385
KKS-1 26 Sep 19:25:41 19:29:09 23° 296° (WNW) 19:32:38 437.445
NUDT-PHONESAT 26 Sep 19:29:52 19:32:32 18° 267° (W) 19:35:14 437.300
AO-85 26 Sep 19:32:13 19:35:20 23° 115° (ESE) 19:38:30 145.980
AAUSAT CUBESAT 2 26 Sep 19:33:14 19:37:01 35° 70° (ENE) 19:40:49 437.432
nSIGHT-1 26 Sep 19:35:03 19:37:36 21° 138° (SE) 19:40:09 .
STARS 26 Sep 19:39:53 19:43:53 35° 292° (WNW) 19:47:53 437.465
STRAND 1 26 Sep 19:41:24 19:45:35 25° 93° (E) 19:49:46 437.568
XW-2C 26 Sep 19:44:51 19:45:18 10° 272° (W) 19:45:46 145.795 - 145.815
Oscar 11 26 Sep 19:54:04 19:57:38 25° 66° (ENE) 20:01:13 .
CUTE 1.7 + AOD 2 26 Sep 19:55:30 19:59:31 39° 263° (W) 20:03:33 437.475
AO-73 26 Sep 19:58:24 20:02:27 38° 69° (ENE) 20:06:38 145.935
ZACube-1 26 Sep 20:03:12 20:07:24 47° 71° (ENE) 20:11:44 437.345
Tancredo 1 26 Sep 20:16:03 20:18:36 37° 342° (NNW) 20:21:08 437.200
BEESAT 3 26 Sep 20:20:01 20:23:49 39° 313° (NW) 20:27:39 437.485
XW-2A 26 Sep 20:22:59 20:26:08 34° 263° (W) 20:29:20 145.665 - 145.685
DELFI C3 26 Sep 20:31:48 20:33:55 14° 62° (ENE) 20:36:00 145.870
BEESAT 2 26 Sep 20:35:06 20:39:07 78° 307° (NW) 20:43:12 435.950
ISS 26 Sep 20:37:45 20:40:59 68° 149° (SSE) 20:44:16 437.550
Max Valier Satellite 26 Sep 20:51:32 20:53:51 16° 64° (ENE) 20:56:11 145.860
SO-50 26 Sep 20:54:30 20:58:17 25° 39° (NE) 21:02:05 436.795
SEEDS 26 Sep 20:58:20 21:00:43 15° 270° (W) 21:03:05 437.485
HO-68 26 Sep 20:58:42 21:03:47 21° 270° (W) 21:08:55 435.675
YUBILEINY 26 Sep 20:59:08 21:01:48 11° 47° (NE) 21:04:27 435.215
UWE-3 26 Sep 21:00:26 21:04:06 26° 267° (W) 21:07:53 435.000/436.395/437.385
CUBEBUG 2 26 Sep 21:02:13 21:04:51 16° 271° (W) 21:07:33 437.445
AAUSAT CUBESAT 2 26 Sep 21:09:17 21:12:33 22° 267° (W) 21:15:50 437.432
nSIGHT-1 26 Sep 21:10:28 21:13:40 65° 335° (NNW) 21:16:54 .
AO-85 26 Sep 21:11:53 21:15:31 37° 314° (NW) 21:19:16 145.980
STRAND 1 26 Sep 21:20:03 21:24:59 47° 291° (WNW) 21:29:53 437.568
Oscar 11 26 Sep 21:29:38 21:33:38 35° 264° (W) 21:37:38 .
AO-73 26 Sep 21:35:17 21:38:48 23° 267° (W) 21:42:25 145.935
PCSat 26 Sep 21:37:49 21:41:50 21° 37° (NE) 21:45:51 145.827
ZACube-1 26 Sep 21:40:49 21:43:57 19° 269° (W) 21:47:09 437.345
EO-88 26 Sep 21:42:54 21:46:23 43° 72° (ENE) 21:49:55 145.990 - 145.960
UNISAT 6 26 Sep 21:50:37 21:53:36 17° 90° (E) 21:56:35 437.425
Tancredo 1 26 Sep 21:51:13 21:53:26 23° 1° (N) 21:55:40 437.200
FO-29 26 Sep 21:59:59 22:05:28 58° 101° (E) 22:11:35 435.910
DELFI C3 26 Sep 22:04:21 22:08:13 56° 259° (W) 22:12:07 145.870
TIGRISAT 26 Sep 22:12:37 22:16:29 25° 93° (E) 22:20:21 435.000
ISS 26 Sep 22:14:36 22:17:39 35° 348° (NNW) 22:20:43 437.550
BEESAT 2 26 Sep 22:15:13 22:17:33 15° 327° (NNW) 22:19:52 435.950
Max Valier Satellite 26 Sep 22:23:47 22:27:20 43° 261° (W) 22:30:57 145.860
LO-87 26 Sep 22:28:34 22:31:13 20° 67° (ENE) 22:33:55 145.935 - 145.965
ESTCUBE 1 26 Sep 22:34:18 22:37:46 22° 64° (ENE) 22:41:15 437.505/2401.250
SO-50 26 Sep 22:34:33 22:39:04 59° 238° (WSW) 22:43:37 436.795
nSIGHT-1 26 Sep 22:47:30 22:50:23 29° 355° (N) 22:53:17 .
YUBILEINY 26 Sep 22:52:44 23:01:12 51° 73° (ENE) 23:09:39 435.215
PRISM 26 Sep 23:18:05 23:22:07 59° 101° (ESE) 23:26:07 437.425
EO-88 26 Sep 23:18:13 23:20:16 14° 269° (W) 23:22:19 145.990 - 145.960
PCSat 26 Sep 23:20:32 23:26:00 89° 52° (NE) 23:31:26 145.827
Tancredo 1 26 Sep 23:25:39 23:28:16 44° 21° (NNE) 23:30:50 437.200
UNISAT 6 26 Sep 23:26:03 23:30:41 61° 287° (WNW) 23:35:19 437.425
AIST 2D 26 Sep 23:31:35 23:34:05 18° 93° (E) 23:36:32 435.315
FO-29 26 Sep 23:45:57 23:50:17 24° 298° (WNW) 23:54:59 435.910
TIGRISAT 26 Sep 23:48:54 23:53:17 40° 291° (WNW) 23:57:40 435.000
QB50P2 26 Sep 23:50:46 23:53:14 15° 90° (E) 23:55:41 145.880/145.840
ISS 26 Sep 23:51:41 23:54:40 31° 7° (N) 23:57:39 437.550
SPROUT 26 Sep 23:54:39 23:58:29 34° 69° (ENE) 00:02:22 437.525
LO-87 27 Sep 00:01:25 00:04:30 28° 264° (W) 00:07:37 145.935 - 145.965
ESTCUBE 1 27 Sep 00:09:58 00:14:18 44° 262° (W) 00:18:39 437.505/2401.250
NANOSAT C BR1 27 Sep 00:21:36 00:25:09 25° 94° (E) 00:28:41 145.865
VELOX 1 27 Sep 00:22:47 00:27:02 51° 71° (ENE) 00:31:19 145.980
nSIGHT-1 27 Sep 00:24:09 00:27:14 38° 15° (NNE) 00:30:19 .
50 SAT 27 Sep 00:41:12 00:43:47 22° 68° (ENE) 00:46:25 437.505
DUCHIFAT 1 27 Sep 00:47:37 00:51:40 41° 98° (E) 00:55:41 145.980
YUBILEINY 27 Sep 00:49:55 00:57:49 40° 274° (W) 01:05:44 435.215
PRISM 27 Sep 00:54:42 00:56:56 15° 299° (WNW) 00:59:10 437.425
Tancredo 1 27 Sep 01:00:14 01:02:32 25° 218° (SW) 01:04:49 437.200
